QZS-2 (QZSS/PRN 184) (42738 NORAD) Tracking and Keplerian Element Data

This shows tracking and keplerian element data for the satellite.

Feedback or suggestion? Click here.




ElementValue
Catalog42738
NameQZS-2 (QZSS/PRN 184)
Epoch Orbit561
Epoch Day344.15484163
Epoch Year2018
RAAN282.1421
Inclination43.9157
Eccentricity0.0755351
Argument of Perigee269.6319
Mean Anonmoly81.7378
Mean Motion1.00289696
Decay Rate-2.31E-06
L11 42738U 17028A 18344.15484163 -.00000231 00000-0 00000+0 0 9990
L22 42738 43.9157 282.1421 0755351 269.6319 81.7378 1.00289696 5614

Live tracking and technical data element details for QZS-2 (QZSS/PRN 184) (NORAD 42738). QZS-2 (QZSS/PRN 184) can be tracked NOW for your location showing map with azimuth and elevation plus other details from your city location.

Track the satellite on the map from your city or location and see movement details for azimuth, elevation, latitude, longitude, range, height, and movement on the map or in text.







IsCatalogInMostPopularTable: catalog: 42738, numindb: 163
Update: records affected: 1



GetName: 42738 QZS-2 (QZSS/PRN 184)

Hit Count: updated at: Thu, 13 Dec 2018 03:26:55 GMT